sat.trackr.live / text

‹ back to catalog

YAOGAN-39 04B

NORAD 58143 · 2023-163C

PAYLOAD ACTIVE UNKNOWN

§ Identity

Operator
Country
PRC
Launch date
2023-10-23
Launch site
XICLF
Launch vehicle
Mass (kg)
RCS (m²)

External: N2YO · Heavens-Above · Gunter

§ Orbital elements

Epoch: 2026-05-25T04:02:30.637824Z

Period
94.90 min
Inclination
34.9923°
Eccentricity
0.0002395
Mean motion
15.17458503 rev/d
Perigee alt
511.9 km
Apogee alt
515.2 km
Semi-major
6,891.7 km
B*
1.6874e-4
RAAN
152.4098°
Arg perigee
36.9961°
Mean anomaly
323.0916°
Rev number
14,381

§ Raw data

YAOGAN-39 04B1 58143U 23163C   26145.16841016  .00003424  00000+0  16874-3 0  99922 58143  34.9923 152.4098 0002395  36.9961 323.0916 15.17458503143815

JSON: /api/v1/satellites/58143 · /tle

For live sub-satellite position, see the globe view (requires WebGL).

§ Visibility from observer

Set your observer location to see the next 7 days of passes ≥ 10°. The values pass through the URL so the page stays shareable.

No JS? Fill the form by hand. The geolocation button needs JavaScript.